Dawson, Yukon Territory

10:35 AM PST on December 07, 2016 (GMT -0800)
Dawson

Weather History for CYDA - November, 2013

Change the Weather History Date:

Tuesday, November 5, 2013

  Actual Average Record
Temperature  
Mean Temperature 13 °F -  
Max Temperature 24 °F 13 °F 37 °F (2002)
Min Temperature 2 °F 5 °F -13 °F (1999)
Degree Days  
Heating Degree Days 52    
Moisture  
Dew Point 16 °F    
Average Humidity 84    
Maximum Humidity 93    
Minimum Humidity 74    
Precipitation  
Precipitation 0.00 in - - ()
Sea Level Pressure  
Sea Level Pressure 29.75 in    
Wind  
Wind Speed 1 mph ()    
Max Wind Speed 6 mph    
Max Gust Speed -    
Visibility 16.3 miles    
Events Snow    
Averages and records for this station are not official NWS values.
T = Trace of Precipitation, MM = Missing Value Source: Averaged Metar Reports

Daily Weather History Graph

Daily Weather History Graph

Search for Another Location

Airport or City:

Trip Planner

Search our weather history database for the weather conditions in past years. The results will help you decide how hot, cold, wet, or windy it might be!

Date:

Astronomy

Nov. 05, 2013 Rise Set
Actual Time 9:13 AM PST 4:45 PM PST
Civil Twilight 8:18 AM PST 5:40 PM PST
Nautical Twilight 7:20 AM PST 6:38 PM PST
Astronomical Twilight 6:25 AM PST 7:33 PM PST
Moon 12:16 PM PST (11/5) 6:15 PM PST (11/5)
Length of Visible Light 9h 22m
Length of Day
7h 32m
Waxing Crescent, 7% of the Moon is Illuminated
Nov 5
Waxing Crescent
Nov 9
First Quarter
Nov 17
Full
Nov 25
Last Quarter
Dec 2
New

Hourly Weather History & Observations

Time (PST) Temp. Windchill Dew Point Humidity Pressure Visibility Wind Dir Wind Speed Gust Speed Precip Events Conditions
1:00 AM 13 °F - 10 °F 82% 29.63 in - SE 1.2 mph - -  
4:00 AM 15 °F - 12 °F 81% 29.63 in - Calm Calm - -  
7:00 AM 17 °F - 14 °F 81% 29.67 in - Calm Calm - -  
7:00 AM 15.8 °F - 14.0 °F 93% 29.66 in 20.0 mi Calm Calm - N/A   Overcast
8:00 AM 17.6 °F - 14.0 °F 86% 29.68 in 20.0 mi Calm Calm - N/A   Overcast
9:00 AM 17.6 °F - 14.0 °F 86% 29.69 in 20.0 mi Calm Calm - N/A   Overcast
10:00 AM 18 °F - 15 °F 81% 29.71 in - Calm Calm - -  
10:00 AM 17.6 °F - 15.8 °F 93% 29.71 in 20.0 mi Calm Calm - N/A   Overcast
10:19 AM 17.6 °F - 15.8 °F 93% 29.71 in 20.0 mi Calm Calm - N/A Snow Light Snow
11:00 AM 19.4 °F - 15.8 °F 86% 29.73 in 20.0 mi SSW 2.3 mph - N/A Snow Light Snow
12:00 PM 21.2 °F - 17.6 °F 86% 29.75 in 15.0 mi WSW 2.3 mph - N/A Snow Light Snow
1:00 PM 23 °F - 18 °F 74% 29.77 in - WSW 3.5 mph - -  
1:00 PM 23.0 °F 18.4 °F 19.4 °F 86% 29.76 in 14.0 mi West 3.5 mph - N/A Snow Light Snow
2:00 PM 23.0 °F 17.0 °F 19.4 °F 86% 29.78 in 10.0 mi SW 4.6 mph - N/A Snow Light Snow
3:00 PM 23.0 °F 17.0 °F 19.4 °F 86% 29.80 in 10.0 mi WSW 4.6 mph - N/A Snow Light Snow
4:00 PM 23 °F - 19 °F 78% 29.82 in - SSW 4.6 mph - -  
4:00 PM 23.0 °F 15.8 °F 19.4 °F 86% 29.82 in 10.0 mi SSW 5.8 mph - N/A Snow Light Snow
7:00 PM 24 °F - 20 °F 78% 29.90 in - SSW 2.3 mph - -  
10:00 PM 24 °F - 20 °F 78% 29.97 in - SSW 4.6 mph - -